Regional Weather Roundup
Issued by NWS Jackson, KY

Home | Current Version | Previous Version | Graphics & Text | Print | Product List | Glossary On
Versions: 1 2 3 4 5 6 7 8 9 10 11 12 13 14 15 16 17 18 19 20 21 22 23 24 25 26 27 28 29 30 31 32 33 34 35 36 37 38 39 40 41 42 43 44 45 46 47 48 49 50
000
ASUS43 KJKL 230611
RWRJKL

EAST KENTUCKY HOURLY WEATHER ROUNDUP
NATIONAL WEATHER SERVICE JACKSON KY
200 AM EDT WED JUL 23 2014

NOTE: "FAIR" INDICATES FEW OR NO CLOUDS BELOW 12,000 FEET WITH
NO SIGNIFICANT WEATHER AND/OR OBSTRUCTIONS TO VISIBILITY.

* THESE REPORTS ARE NOT UNDER NWS QUALITY CONTROL AND MAY NOT
  REPORT WEATHER SUCH AS PRECIPITATION AND FOG.

KYZ079-080-083-085-087-088-110-112-115-119-120-230700
...EASTERN KENTUCKY...

CITY           SKY/WX    TMP DP  RH WIND       PRES   REMARKS
JACKSON        CLEAR     74  70  87 CALM      30.10R
6HR MIN TEMP:  74; 6HR MAX TEMP:  85;

LONDON         CLEAR     73  70  90 CALM      30.10S
6HR MIN TEMP:  73; 6HR MAX TEMP:  80;

SOMERSET*      CLEAR     72  72 100 CALM      30.09F FOG
MONTICELLO*    CLEAR     73  73 100 CALM      30.10S FOG
6HR MIN TEMP:  72; 6HR MAX TEMP:  88;

WILLIAMSBURG*    N/A     70  70 100 CALM      30.10
MIDDLESBORO*   CLEAR     69  69  97 CALM      30.12S
6HR MIN TEMP:  69; 6HR MAX TEMP:  83;

HARLAN APT*    PTCLDY    68  68 100 MISG      30.13F
BLACK MTN*       N/A     66  64  94 S7          N/A
PIKEVILLE APT* CLEAR     73  70  88 S3        30.10F
BIG SANDY*     CLEAR     74  72  91 W3        30.09R
6HR MIN TEMP:  74; 6HR MAX TEMP:  83;

MOREHEAD APT*    N/A     73  72  94 SW3       30.08F
$$

KYZ035-036-041-042-044-050-067-078-099-230700
...CENTRAL KENTUCKY...

CITY           SKY/WX    TMP DP  RH WIND       PRES   REMARKS
MT STERLING*   CLEAR     73  72  94 SW6       30.08S
FLEMING/MASON* CLEAR     73  72  94 SW3       30.06S
DANVILLE*      CLEAR     72  70  94 S3        30.08F
RICHMOND*      CLEAR     77  70  78 SW6       30.07S
LEXINGTON      PTCLDY    76  70  82 S6        30.06F
6HR MIN TEMP:  76; 6HR MAX TEMP:  87;

FRANKFORT      CLEAR     75  71  87 W5        30.04F
6HR MIN TEMP:  73; 6HR MAX TEMP:  86;

$$

KYZ091>093-OHZ055-061-077-WVZ005-015-034-035-042-230700
...SOUTHERN OHIO/WEST VIRGINIA...

CITY           SKY/WX    TMP DP  RH WIND       PRES   REMARKS
COVINGTON      CLEAR     71  67  87 CALM      30.04S
COLUMBUS       CLEAR     78  70  76 CALM      30.03R
DAYTON         MOCLDY    73  67  81 W3        30.05S
WILMINGTON     CLEAR     72  67  84 CALM      30.04S
HUNTINGTON     MOCLDY    73  71  93 CALM      30.04F
CHARLESTON     CLEAR     72  72 100 CALM      30.05F
PINEVILLE*     CLEAR     69  69 100 MISG      30.17F
BECKLEY        CLEAR     70  63  78 SE7       30.16F
BLUEFIELD      CLEAR     73  63  70 SW3       30.19F
$$

VAZ002-007-008-TNZ017-027-036-066-071-230700
...SOUTHWEST VIRGINIA/EAST TENNESSEE...

CITY           SKY/WX    TMP DP  RH WIND       PRES   REMARKS
WISE*          CLEAR     70  68  94 SW5       30.19F
JONESVILLE*      N/A     68  68 100 CALM      30.14S
ABINGDON*      CLEAR     70  68  93 CALM      30.16F
BRISTOL        CLEAR     69  66  90 CALM      30.12F
KNOXVILLE      MOCLDY    75  70  84 W7        30.09F
OAK RIDGE      MOCLDY    77  72  84 CALM      30.11F
CROSSVILLE     PTCLDY    71  68  90 CALM      30.16F
NASHVILLE      PTCLDY    75  72  90 CALM      30.08S
$$

...KEY TO REMARKS...
VSB - VISIBILITY IN MILES
WCI - WIND CHILL INDEX
HX  - HEAT INDEX

$$


USA.gov is the U.S. government's official web portal to all federal, state and local government web resources and services.